Glasgow, MT

12:13 AM MDT on June 23, 2017 (GMT -0600)
Wokal-Glasgow International

Weather History for KGGW - September, 2012

Change the Weather History Date:

Wednesday, September 12, 2012

  Actual Average Record
Temperature  
Mean Temperature 50 °F 60 °F  
Max Temperature 67 °F 74 °F 97 °F (1958)
Min Temperature 33 °F 46 °F 26 °F (1970)
Degree Days  
Heating Degree Days 15 7  
Month to date heating degree days 50 59  
Since 1 July heating degree days 74 112  
Cooling Degree Days 0 1  
Month to date cooling degree days 22 27  
Year to date cooling degree days 679 522  
Moisture  
Dew Point 19 °F    
Average Humidity 33    
Maximum Humidity 51    
Minimum Humidity 15    
Precipitation  
Precipitation 0.00 in 0.03 in 0.91 in (1950)
Month to date precipitation 0.02 0.38  
Year to date precipitation 10.85 9.55  
Snow  
Snow 0.00 in 0.00 in T in (1949)
Month to date snowfall 0.0 0.0  
Since 1 July snowfall 0.0 0.0  
Since 1 September snowfall 0.0 0.0  
Snow Depth 0.00 in    
Sea Level Pressure  
Sea Level Pressure 30.27 in    
Wind  
Wind Speed 7 mph (WNW)    
Max Wind Speed 18 mph    
Max Gust Speed 24 mph    
Visibility 10 miles    
Events      
T = Trace of Precipitation, MM = Missing Value Source: NWS Daily Summary

Daily Weather History Graph

Daily Weather History Graph

Search for Another Location

Airport or City:

Trip Planner

Search our weather history database for the weather conditions in past years. The results will help you decide how hot, cold, wet, or windy it might be!

Date:

Astronomy

Sep. 12, 2012 Rise Set
Actual Time 6:40 AM MDT 7:23 PM MDT
Civil Twilight 6:08 AM MDT 7:55 PM MDT
Nautical Twilight 5:30 AM MDT 8:32 PM MDT
Astronomical Twilight 4:51 AM MDT 9:12 PM MDT
Moon 2:46 AM MDT (9/12) 5:23 PM MDT (9/12)
Length of Visible Light 13h 46m
Length of Day
12h 43m
Waning Crescent, 13% of the Moon is Illuminated
Sep 12
Waning Crescent
Sep 15
New
Sep 22
First Quarter
Sep 29
Full
Oct 8
Last Quarter

Hourly Weather History & Observations

Time (MDT) Temp. Windchill Dew Point Humidity Pressure Visibility Wind Dir Wind Speed Gust Speed Precip Events Conditions
12:53 AM 43.0 °F 38.8 °F 16.0 °F 34% 30.15 in 10.0 mi West 6.9 mph - N/A   Clear
1:53 AM 43.0 °F 41.3 °F 17.1 °F 35% 30.15 in 10.0 mi WSW 3.5 mph - N/A   Clear
2:53 AM 37.9 °F 33.5 °F 18.0 °F 45% 30.18 in 10.0 mi West 5.8 mph - N/A   Clear
3:53 AM 41.0 °F 37.1 °F 17.1 °F 38% 30.18 in 10.0 mi West 5.8 mph - N/A   Clear
4:53 AM 37.0 °F 32.4 °F 17.1 °F 44% 30.21 in 10.0 mi West 5.8 mph - N/A   Clear
5:53 AM 37.0 °F 33.3 °F 18.0 °F 46% 30.24 in 10.0 mi NW 4.6 mph - N/A   Clear
6:53 AM 34.0 °F 28.8 °F 18.0 °F 52% 30.26 in 10.0 mi NW 5.8 mph - N/A   Clear
7:53 AM 41.0 °F 38.0 °F 21.0 °F 45% 30.28 in 10.0 mi NW 4.6 mph - N/A   Clear
8:53 AM 45.0 °F 41.8 °F 21.9 °F 40% 30.30 in 10.0 mi WNW 5.8 mph - N/A   Clear
9:53 AM 53.1 °F - 24.1 °F 32% 30.32 in 10.0 mi WNW 9.2 mph - N/A   Clear
10:53 AM 57.9 °F - 24.1 °F 27% 30.32 in 10.0 mi WNW 6.9 mph - N/A   Partly Cloudy
11:53 AM 61.0 °F - 24.1 °F 24% 30.32 in 10.0 mi West 12.7 mph 17.3 mph N/A   Clear
12:53 PM 63.0 °F - 21.0 °F 20% 30.32 in 10.0 mi WNW 11.5 mph 20.7 mph N/A   Clear
1:53 PM 64.0 °F - 21.0 °F 19% 30.30 in 10.0 mi WNW 12.7 mph 20.7 mph N/A   Clear
2:53 PM 66.2 °F - 19.4 °F 17% 30.27 in 10.0 mi WNW 13.8 mph 21.9 mph N/A   Scattered Clouds
3:53 PM 66.0 °F - 18.0 °F 16% 30.29 in 10.0 mi WNW 12.7 mph 24.2 mph N/A   Clear
4:53 PM 64.0 °F - 17.1 °F 16% 30.29 in 10.0 mi WNW 15.0 mph - N/A   Clear
5:53 PM 64.9 °F - 18.0 °F 16% 30.30 in 10.0 mi WNW 9.2 mph 18.4 mph N/A   Clear
6:53 PM 60.8 °F - 17.6 °F 19% 30.27 in 10.0 mi WNW 6.9 mph - N/A   Clear
7:53 PM 57.0 °F - 18.0 °F 22% 30.30 in 10.0 mi Calm Calm - N/A   Clear
8:53 PM 57.0 °F - 18.0 °F 22% 30.30 in 10.0 mi Calm Calm - N/A   Clear
9:53 PM 51.1 °F - 19.0 °F 28% 30.30 in 10.0 mi Calm Calm - N/A   Clear
10:53 PM 50.0 °F - 19.0 °F 29% 30.30 in 10.0 mi Calm Calm - N/A   Clear
11:53 PM 43.0 °F 38.8 °F 18.0 °F 37% 30.30 in 10.0 mi East 6.9 mph - N/A   Clear